TimePDT,TemperatureF,Dew PointF,Humidity,Sea Level PressureIn,VisibilityMPH,Wind Direction,Wind SpeedMPH,Gust SpeedMPH,PrecipitationIn,Events,Conditions,WindDirDegrees,DateUTC
12:53 AM,51.1,45.0,80,30.04,10.0,NW,17.3,-,N/A,,Clear,320,2013-05-26 07:53:00
1:53 AM,50.0,45.0,83,30.04,10.0,NNW,12.7,-,N/A,,Clear,330,2013-05-26 08:53:00
2:53 AM,50.0,45.0,83,30.04,10.0,NW,8.1,18.4,N/A,,Clear,320,2013-05-26 09:53:00
3:53 AM,48.9,45.0,86,30.05,10.0,NW,12.7,-,N/A,,Clear,310,2013-05-26 10:53:00
4:53 AM,48.9,46.0,90,30.05,10.0,NNW,16.1,-,N/A,,Clear,330,2013-05-26 11:53:00
5:35 AM,50.0,46.4,87,30.06,10.0,NNW,16.1,-,N/A,,Partly Cloudy,330,2013-05-26 12:35:00
5:53 AM,50.0,46.0,86,30.06,10.0,NNW,17.3,-,N/A,,Scattered Clouds,330,2013-05-26 12:53:00
6:03 AM,50.0,46.4,87,30.07,10.0,NW,13.8,-,N/A,,Mostly Cloudy,320,2013-05-26 13:03:00
6:53 AM,52.0,46.0,80,30.07,10.0,NNW,12.7,-,N/A,,Mostly Cloudy,340,2013-05-26 13:53:00
7:02 AM,51.8,46.4,82,30.08,10.0,NNW,11.5,-,N/A,,Scattered Clouds,330,2013-05-26 14:02:00
7:53 AM,55.0,46.0,72,30.08,10.0,NNW,10.4,-,N/A,,Scattered Clouds,340,2013-05-26 14:53:00
8:53 AM,57.9,46.0,65,30.09,10.0,NNW,11.5,-,N/A,,Clear,330,2013-05-26 15:53:00
9:53 AM,63.0,46.9,56,30.09,10.0,North,6.9,-,N/A,,Clear,350,2013-05-26 16:53:00
10:53 AM,68.0,46.9,47,30.08,10.0,NNW,9.2,-,N/A,,Clear,330,2013-05-26 17:53:00
11:53 AM,71.1,46.0,41,30.07,10.0,NW,4.6,-,N/A,,Clear,310,2013-05-26 18:53:00
12:53 PM,73.9,44.1,34,30.04,10.0,NE,5.8,-,N/A,,Clear,50,2013-05-26 19:53:00
1:53 PM,75.9,44.1,32,30.03,10.0,Variable,4.6,-,N/A,,Clear,0,2013-05-26 20:53:00
2:53 PM,78.1,44.1,30,30.01,10.0,West,3.5,-,N/A,,Clear,280,2013-05-26 21:53:00
3:53 PM,81.0,43.0,26,30.00,10.0,North,8.1,-,N/A,,Clear,10,2013-05-26 22:53:00
4:53 PM,81.0,41.0,24,29.99,10.0,NNW,13.8,18.4,N/A,,Clear,340,2013-05-26 23:53:00
5:53 PM,80.1,41.0,25,29.99,10.0,NNW,13.8,-,N/A,,Clear,340,2013-05-27 00:53:00
6:53 PM,73.9,46.0,37,30.01,10.0,WNW,16.1,-,N/A,,Clear,300,2013-05-27 01:53:00
7:53 PM,69.1,48.0,47,30.01,10.0,NW,20.7,-,N/A,,Clear,320,2013-05-27 02:53:00
8:53 PM,64.9,48.0,54,30.04,10.0,NW,16.1,26.5,N/A,,Clear,320,2013-05-27 03:53:00
9:53 PM,61.0,48.0,62,30.07,10.0,NW,9.2,-,N/A,,Clear,310,2013-05-27 04:53:00
10:53 PM,57.9,48.0,70,30.08,10.0,NW,12.7,-,N/A,,Clear,310,2013-05-27 05:53:00
11:53 PM,55.9,48.0,75,30.09,10.0,NW,13.8,-,N/A,,Clear,310,2013-05-27 06:53:00